Home   Weather   Monrovia   Past weeks
Flag for Liberia

Past Weather in Monrovia, Liberia — Yesterday and Last 2 Weeks

Now
77 °F

Passing clouds.


Feels Like: 78 °F
Forecast: 88 / 78 °F
Wind: No wind

Location: Roberts Field

Current Time: Apr 25, 2019 at 2:09:08 am

Latest Report: Apr 25, 2019 at 1:00 am


Visibility: N/A

Pressure: 29.89 "Hg

Humidity: 94%

Dew Point: 75 °F

Location of MonroviaLocation

Past Weather in Monrovia — Graph

°F

Monrovia Temperature Yesterday

Maximum temperature yesterday: 91 °F (at 3:00 pm)
Minimum temperature yesterday: 79 °F (at 4:00 am)
Average temperature yesterday: 83 °F

High & Low Weather Summary for the Past Weeks

 TemperatureHumidityPressure
High93 °F (Apr 10, 2:00 pm)100% (Apr 11, 7:00 am)29.95 "Hg (Apr 11, 7:00 am)
Low73 °F (Apr 12, 7:00 am)53% (Apr 10, 2:00 pm)29.71 "Hg (Apr 15, 3:00 pm)
Average82 °F84%29.85 "Hg
* Reported Apr 10 12:00 am — Apr 25 12:00 am, Monrovia. Weather by CustomWeather, © 2019

Note: Actual official high and low records may vary slightly from our data, if they occured in-between our weather recording intervals... More about our weather records

Advertising

Monrovia Weather History for the Previous 24 Hours

Scroll right to see more
 ConditionsComfort  
Time TempWeatherWind HumidityBarometerVisibility
12:00 am
Thu, Apr 25
77 °FPassing clouds.No wind94%29.92 "HgN/A
11:00 pm
Wed, Apr 24
79 °FPassing clouds.No wind94%29.92 "HgN/A
10:00 pm79 °FPassing clouds.No wind94%29.92 "HgN/A
9:00 pm79 °FPassing clouds.No wind94%29.89 "HgN/A
8:00 pm81 °FThunderstorms. Passing clouds.No wind89%29.89 "Hg6 mi
7:00 pm81 °FThunderstorms. Partly sunny.No wind94%29.86 "Hg5 mi
6:00 pm81 °FThunderstorms. Partly sunny.No wind89%29.83 "Hg6 mi
5:00 pm82 °FThunderstorms. Partly sunny.7 mph84%29.83 "Hg4 mi
4:00 pm88 °FThunderstorms. Partly sunny.12 mph75%29.80 "HgN/A
3:00 pm91 °FPartly sunny.7 mph67%29.83 "HgN/A
2:00 pm90 °FPartly sunny.13 mph67%29.83 "HgN/A
1:00 pm90 °FPartly sunny.12 mph67%29.86 "HgN/A
12:00 pm88 °FPartly sunny.9 mph75%29.89 "HgN/A
11:00 am86 °FPartly sunny.7 mph75%29.89 "HgN/A
10:00 am86 °FPartly sunny.6 mph75%29.89 "HgN/A
9:00 am82 °FPartly sunny.6 mph89%29.86 "HgN/A
8:00 am79 °FPartly sunny.No wind94%29.86 "Hg6 mi
7:00 am79 °FFog.No wind94%29.83 "Hg4 mi
6:00 am79 °FFog.No wind94%29.83 "Hg4 mi
4:00 am79 °FPassing clouds.No wind94%29.80 "HgN/A
Weather by CustomWeather, © 2019

See weather overview